Location: Centreville
(38.8333°N, 77.4295°W)
Time: 23:08:45
(UTC-04:00)

BEESAT 3 - Visible Passes

Search period start: 19 October 2019 00:00
Search period end: 29 October 2019 00:00
Orbit: 479 x 530 km, 64.9° (Epoch: 18 October)

Date Brightness Start Highest point End Pass type
(mag) Time Alt. Az. Time Alt. Az. Time Alt. Az.
20 Oct ? 06:45:19 10° NNE 06:46:07 10° NE 06:46:55 10° NE visible
25 Oct ? 06:43:37 10° NNW 06:47:36 65° ENE 06:51:30 10° SE visible
26 Oct ? 06:24:20 10° NNW 06:28:17 61° ENE 06:32:10 10° SE visible
27 Oct ? 06:05:22 12° NNW 06:08:58 56° NE 06:12:50 10° SE visible
28 Oct ? 05:47:30 24° NNW 05:49:38 53° NE 05:53:29 10° SE visible
